Regional Weather Roundup
Issued by NWS San Diego, CA

Home | Current Version | Previous Version | Text Only | Print | Product List | Glossary On
Versions: 1 2 3 4 5 6 7 8 9 10 11 12 13 14 15 16 17 18 19 20 21 22 23 24 25 26 27 28 29 30 31 32 33 34 35 36 37 38 39 40 41 42 43 44 45 46 47 48 49 50
000
ASUS46 KSGX 291311
RWRSGX

SAN DIEGO HOURLY WEATHER ROUNDUP
NATIONAL WEATHER SERVICE SAN DIEGO CA
600 AM PDT MON AUG 29 2016

NOTE: "FAIR" INDICATES FEW OR NO CLOUDS BELOW 12,000 FEET WITH NO
SIGNIFICANT WEATHER AND/OR OBSTRUCTIONS TO VISIBILITY.

CAZ042-043-060-061-PZZ750-775-291400-

GREATER SAN DIEGO AREA

CITY           SKY/WX    TMP DP  RH WIND       PRES   REMARKS
LINDBERGH FLD  MOCLDY    68  63  84 NW5       29.96F
POINT LOMA       N/A     66  63  89 NW5         N/A
NATIONAL CITY    N/A    N/A N/A N/A CALM      29.96S
CHULA VISTA      N/A     67  65  92 CALM      29.88S
IMPERIAL BEACH CLOUDY    70  64  81 W6        29.96S
BROWN FIELD    CLOUDY    66  64  93 CALM      29.96S FOG
MIRAMAR MCAS   MOCLDY    65  60  84 CALM      29.95F
MONTGOMERY FLD PTCLDY    66  62  87 CALM      29.96S

$$

NORTH SAN DIEGO COUNTY

CITY           SKY/WX    TMP DP  RH WIND       PRES   REMARKS
CAMP PENDLETON CLOUDY    63  63 100 NE5       29.95S FOG
OCEANSIDE AP   CLOUDY    68  62  81 SE6       29.94S
OCEANSIDE HBR    N/A     67  66  94 CALM      29.98S
VISTA            N/A     65  60  83 CALM      29.93S
CARLSBAD       CLOUDY    67  64  90 S3        29.95S
DEL MAR          N/A     66  64  91 CALM      29.97F
LA JOLLA SCRIP   N/A     66  64  92 CALM      29.95S
FALLBROOK        N/A     64  64 100 CALM      29.95S
ESCONDIDO        N/A     64  61  88 CALM      29.96F
SAN MARCOS       N/A     64  57  79 CALM      29.98S
POWAY            N/A     62  59  89 CALM      29.96S

$$

EAST SAN DIEGO COUNTY

CITY           SKY/WX    TMP DP  RH WIND       PRES   REMARKS
RAMONA         CLEAR     56  51  84 CALM      29.98S
SANTEE LAKES     N/A     61  59  92 CALM      29.94S
LA MESA          N/A     64  63  94 CALM      29.88F
JAMUL            N/A     61  60  95 CALM      29.94S
DESCANSO N       N/A     63  42  46 N6        29.87S
MT. LAGUNA OBS   N/A     69  38  32 N3        29.82R
CAMPO            N/A     57  45  64 NE8       30.01S

$$

ORANGE COUNTY AND THE LOS ANGELES BASIN

CITY           SKY/WX    TMP DP  RH WIND       PRES   REMARKS
JOHN WAYNE AP  PTCLDY    66  61  84 CALM      29.95R
LAKE FOREST FR   N/A     63  57  80 CALM      29.85R
HUNTINGTON BCH   N/A     64  63  98 CALM      29.96S
LOS ALAMITOS   FAIR      65  62  92 SE2       29.95R
FULLERTON      CLEAR     66  59  78 CALM      29.94S
LONG BEACH     CLEAR     66  64  93 CALM      29.95R
L.A. AP        CLEAR     67  61  81 CALM      29.95R
L.A. DOWNTOWN  CLEAR     65  60  84 CALM      29.94S

$$

THE INLAND EMPIRE

CITY           SKY/WX    TMP DP  RH WIND       PRES   REMARKS
CORONA         CLEAR     58  55  90 CALM      29.96S
CHINO          CLEAR     63  57  81 CALM      29.97S HAZE
ONTARIO        CLEAR     67  55  65 CALM      29.96S
SAN BERNARDINO FAIR      66  51  58 CALM      29.98R
RIVERSIDE AP   CLEAR     67  54  63 NE3       29.96S
MORENO VALLEY    N/A     68  56  65 CALM      28.10S
MARCH ARB      CLEAR     63  48  58 CALM      29.98S
PERRIS           N/A     66  55  68 CALM      30.00S
HEMET EAST       N/A     72  38  29 CALM      29.82S
FRENCH VALLEY  FAIR      64  57  77 CALM      29.99S
TEMECULA         N/A     63  60  90 CALM      30.04S

$$

SAN BERNARDINO AND RIVERSIDE COUNTY MOUNTAINS

CITY           SKY/WX    TMP DP  RH WIND       PRES   REMARKS
BIG BEAR AP    CLEAR     43  30  61 CALM      30.36S
ANGELUS OAKS     N/A     64  36  36 CALM      29.86S
PINE COVE        N/A     67  38  34 CALM      29.93S

$$

SOUTHERN DESERT INCLUDING THE COACHELLA VALLEY

CITY           SKY/WX    TMP DP  RH WIND       PRES   REMARKS
PALM SPRINGS   CLEAR     85  46  25 NW7       29.89R
THOUSAND PALMS   N/A     89  45  21 NW8       29.84R
PALM DESERT      N/A     81  55  40 CALM      28.24S
THERMAL        CLEAR     75  48  38 N6        29.82R
BLYTHE         CLEAR     78  50  37 NW6       29.87R
IMPERIAL AP    CLEAR     79  51  37 CALM      29.82R
EL CENTRO NAS  CLEAR     79  45  29 W5        29.84R
YUMA AZ        CLEAR     81  47  30 CALM      29.84
MEXICALI       CLEAR     79  48  34 CALM      29.84

$$

UPPER DESERT

CITY           SKY/WX    TMP DP  RH WIND       PRES   REMARKS
VICTORVILLE AP CLEAR     70  37  30 CALM      30.08S
HESPERIA         N/A     67  40  37 W3        30.04R
PALMDALE       CLEAR     66  38  35 S5        30.06S
LANCASTER      CLEAR     66  38  35 SE5       30.05S
EDWARDS AFB    CLEAR     65  37  35 SW7       30.02S
DAGGETT        CLEAR     74  38  27 W13       30.01S
29 PALMS N     CLEAR     77  36  22 W7        30.07R
NEEDLES        CLEAR     82  59  45 SW30G61   29.92R

$$

REGIONAL REPORTS

CITY           SKY/WX    TMP DP  RH WIND       PRES   REMARKS
SANTA BARBARA  CLEAR     59  56  89 CALM      29.94S
SANDBERG       CLEAR     74  38  27 N18       30.20R
LAS VEGAS NV   CLEAR     78  47  33 S3        30.00R
PHOENIX AZ     CLEAR     83  49  30 VRB5      29.91R
TIJUANA        CLOUDY    64  61  88 CALM      29.98F
ENSENADA NW      N/A     66  32  27 E6        29.92F

$$

OFFSHORE ISLANDS

CITY           SKY/WX    TMP DP  RH WIND       PRES   REMARKS
CATALINA ARPT  CLEAR     72  50  45 SW3       29.99S
SAN NICOLAS IS CLOUDY   N/A N/A N/A W20       29.96S FOG

$$

MARINE AND OFFSHORE BUOY REPORTS

STATION/POSITION SKY/WX   TEMP    WIND        PRES    SWELL
                          AIR SEA DIR/SP/G            HT/PER/DIR
                          (F)     (DEG/KT/KT) (MB)    (FT/S/D)
TANNER BANKS               63 64  310/ 17/ 23 1014.8S   3/220/16
S CLEMENTE BASIN           66 70  290/  8/ 10 1014.2F   5/280/ 8
SAN NICOLAS IS.               63                N/A     3/200/17
SO. S. ROSA ISLA           59 63  310/ 21/ 27 1014.6R   3/310/10
W. S. BARBARA CH           59 58  320/ 23/ 27 1014.2S   2/290/16
M. S. BARBARA CH                  360/  4/  6 1014.5R   3/250/ 6
S. MONICA BASIN            67 69  330/  6/  8 1013.5F
S PEDRO CHANNEL               72                N/A     2/180/12
OCEANSIDE OFFSHR              68                N/A     2/200/17
TORREY PINES OTR              71                N/A     2/220/17
POINT LOMA SOUTH              70                N/A     2/190/17

$$




USA.gov is the U.S. government's official web portal to all federal, state and local government web resources and services.